This demonstration page uses our WeatherBlox Daily Observations layout. Learn more.

Hourly Observations for December 27, 2017

Temp ( °F °C ) Dew Point ( °F °C ) Humidity (%) Winds ( mph kmh ) Pressure ( in mb ) Visibility ( mi km ) Precip ( " mm )
12:15 am 00:15 Clear -7 -21.8 -10 -23.6 85 85 Calm 30.92 1047 10 16.09344 0 0
12:35 am 00:35 Clear -8 -22.4 -12 -24.5 83 83 SSE 3 6 30.92 1047 10 16.09344 0 0
12:55 am 00:55 Clear -9 -22.5 -12 -24.3 85 85 SE 3 6 30.92 1047 10 16.09344 0 0
1:15 am 01:15 Clear -5 -20.6 -8 -22.3 86 86 SSE 3 6 30.86 1045 10 16.09344 0 0
1:35 am 01:35 Partly Cloudy -7 -21.6 -10 -23.6 84 84 S 3 6 30.92 1047 10 16.09344 0 0
1:55 am 01:55 Partly Cloudy -6 -21 -9 -23 84 84 SSE 5 7 30.86 1045 10 16.09344 0 0
2:15 am 02:15 Partly Cloudy -6 -21.1 -9 -23 85 85 SSE 5 7 30.86 1045 10 16.09344 0 0
2:35 am 02:35 Mostly Cloudy -5 -20.5 -8 -22.3 86 86 S 3 6 30.89 1046 10 16.09344 0 0
2:55 am 02:55 Cloudy -3 -19.6 -6 -21.2 87 87 S 5 7 30.86 1045 10 16.09344 0 0
3:15 am 03:15 Cloudy 0 -18 -3 -19.5 88 88 S 5 7 30.83 1044 10 16.09344 0 0
3:35 am 03:35 Cloudy 1 -17.5 -2 -19.1 87 87 S 7 11 30.83 1044 10 16.09344 0 0
3:55 am 03:55 Cloudy 1 -17 -1 -18.5 88 88 SSE 7 11 30.83 1044 10 16.09344 0 0
4:15 am 04:15 Cloudy 3 -16.1 1 -17.5 89 89 S 7 11 30.77 1042 10 16.09344 0 0
4:35 am 04:35 Cloudy 4 -15.7 1 -17 90 90 S 8 13 30.77 1042 10 16.09344 0 0
4:55 am 04:55 Cloudy 4 -15.5 1 -17 88 88 S 8 13 30.77 1042 10 16.09344 0 0
5:15 am 05:15 Cloudy 4 -15.5 2 -16.9 89 89 S 9 15 30.77 1042 10 16.09344 0 0
5:35 am 05:35 Cloudy 4 -15.5 2 -16.7 91 91 S 9 15 30.77 1042 10 16.09344 0 0
5:55 am 05:55 Cloudy 4 -15.5 2 -16.7 91 91 S 12 19 30.77 1042 10 16.09344 0 0
6:15 am 06:15 Cloudy 4 -15.5 2 -16.7 91 91 S 9 15 30.77 1042 10 16.09344 0 0
6:35 am 06:35 Cloudy 5 -15 3 -16.3 90 90 S 9 15 30.74 1041 10 16.09344 0 0
6:55 am 06:55 Cloudy 5 -15 3 -16.2 91 91 S 10 17 30.77 1042 10 16.09344 0 0
7:15 am 07:15 Cloudy 5 -14.9 3 -16.2 90 90 S 10 17 30.77 1042 10 16.09344 0 0
7:35 am 07:35 Cloudy 5 -15.1 2 -16.5 89 89 S 13 20 30.77 1042 10 16.09344 0 0
7:55 am 07:55 Cloudy 5 -15.1 2 -16.6 88 88 SSE 14 22 30.74 1041 10 16.09344 0 0
8:15 am 08:15 Cloudy 5 -15 2 -16.5 88 88 SSE 15 24 30.74 1041 10 16.09344 0 0
8:35 am 08:35 Cloudy 5 -15 2 -16.6 88 88 SSE 14 22 30.74 1041 10 16.09344 0 0
8:55 am 08:55 Cloudy 5 -15 1 -17 85 85 SSE 14 22 30.74 1041 10 16.09344 0 0
9:15 am 09:15 Cloudy 5 -14.8 1 -17 83 83 SSE 14 22 30.74 1041 7 11.265408 0 0
9:35 am 09:35 Cloudy 6 -14.6 1 -17.3 80 80 SSE 16 26 30.74 1041 10 16.09344 0 0
9:55 am 09:55 Cloudy 6 -14.5 1 -17.5 78 78 SSE 13 20 30.74 1041 10 16.09344 0 0
10:15 am 10:15 Cloudy 6 -14.4 -1 -18.2 73 73 SSE 15 24 30.74 1041 10 16.09344 0 0
10:35 am 10:35 Cloudy 7 -14.1 0 -18 73 73 SSE 17 28 30.74 1041 10 16.09344 0 0
10:55 am 10:55 Cloudy 7 -14.1 1 -17.5 76 76 SSE 15 24 30.74 1041 10 16.09344 0 0
11:15 am 11:15 Cloudy 7 -13.8 2 -16.9 78 78 SSE 15 24 30.74 1041 10 16.09344 0 0
11:35 am 11:35 Cloudy 8 -13.6 3 -16.3 80 80 SSE 15 24 30.71 1040 10 16.09344 0 0
11:55 am 11:55 Cloudy 8 -13.4 3 -16.1 80 80 SSE 17 28 30.68 1039 10 16.09344 0 0
12:15 pm 12:15 Cloudy 8 -13.3 3 -15.9 81 81 SSE 18 30 30.65 1038 10 16.09344 0 0
12:35 pm 12:35 Cloudy 8 -13.2 4 -15.6 82 82 SSE 20 31 30.62 1037 10 16.09344 0 0
12:55 pm 12:55 Cloudy with Mist and Fog 9 -13 4 -15.4 82 82 SSE 21 33 30.62 1037 5 8.04672 0 0
1:15 pm 13:15 Cloudy 9 -12.9 4 -15.3 82 82 SSE 18 30 30.62 1037 10 16.09344 0 0
1:35 pm 13:35 Cloudy 9 -12.7 5 -15.1 82 82 SSE 17 28 30.59 1036 7 11.265408 0 0
1:55 pm 13:55 Cloudy 9 -12.6 5 -15 82 82 SSE 16 26 30.59 1036 7 11.265408 0 0
2:15 pm 14:15 Cloudy 10 -12.5 6 -14.7 84 84 SSE 16 26 30.59 1036 7 11.265408 0 0
2:35 pm 14:35 Cloudy with Mist and Fog 10 -12.2 6 -14.5 83 83 SSE 21 33 30.53 1034 5 8.04672 0 0
2:55 pm 14:55 Cloudy with Mist and Fog 10 -12.3 6 -14.5 84 84 SSE 18 30 30.56 1035 4 6.437376 0 0
3:15 pm 15:15 Cloudy with Mist and Fog 10 -12.4 6 -14.3 86 86 SSE 17 28 30.5 1033 5 8.04672 0 0
3:35 pm 15:35 Cloudy with Mist and Fog 10 -12.4 6 -14.5 85 85 SSE 20 31 30.5 1033 4 6.437376 0 0
3:55 pm 15:55 Cloudy with Mist and Fog 10 -12.5 6 -14.5 85 85 SSE 15 24 30.56 1035 5 8.04672 0 0
4:15 pm 16:15 Cloudy with Mist and Fog 10 -12.5 6 -14.6 84 84 SSE 20 31 30.5 1033 5 8.04672 0 0
4:35 pm 16:35 Cloudy 10 -12.4 6 -14.5 85 85 SSE 20 31 30.5 1033 10 16.09344 0 0
4:55 pm 16:55 Cloudy 10 -12.2 6 -14.4 84 84 SSE 18 30 30.5 1033 10 16.09344 0 0
5:15 pm 17:15 Cloudy 10 -12.5 6 -14.5 85 85 SSE 17 28 30.56 1035 10 16.09344 0 0
5:35 pm 17:35 Cloudy 9 -12.6 6 -14.7 84 84 SSE 17 28 30.53 1034 10 16.09344 0 0
5:55 pm 17:55 Cloudy 9 -12.6 5 -14.9 83 83 SSE 15 24 30.53 1034 10 16.09344 0 0
6:15 pm 18:15 Cloudy 9 -12.8 5 -15.1 83 83 SSE 17 28 30.53 1034 10 16.09344 0 0
6:35 pm 18:35 Cloudy 9 -13 5 -15.2 84 84 SSE 17 28 30.53 1034 10 16.09344 0 0
6:55 pm 18:55 Mostly Cloudy 8 -13.2 4 -15.6 82 82 SSE 10 17 30.56 1035 10 16.09344 0 0
7:15 pm 19:15 Clear 8 -13.5 4 -15.8 83 83 SSE 13 20 30.53 1034 10 16.09344 0 0
7:35 pm 19:35 Clear 8 -13.5 4 -15.7 84 84 SSE 14 22 30.53 1034 10 16.09344 0 0
7:55 pm 19:55 Clear 8 -13.5 4 -15.7 84 84 SSE 12 19 30.53 1034 10 16.09344 0 0
8:15 pm 20:15 Clear 8 -13.5 4 -15.7 84 84 SSE 12 19 30.53 1034 10 16.09344 0 0
8:35 pm 20:35 Clear 8 -13.6 4 -15.8 84 84 SSE 14 22 30.5 1033 10 16.09344 0 0
8:55 pm 20:55 Clear 7 -13.8 3 -15.9 84 84 SSE 14 22 30.5 1033 10 16.09344 0 0
9:15 pm 21:15 Clear 7 -13.8 4 -15.8 85 85 SSE 13 20 30.5 1033 10 16.09344 0 0
9:35 pm 21:35 Clear 7 -13.8 3 -16 84 84 SSE 12 19 30.5 1033 10 16.09344 0 0
9:55 pm 21:55 Clear 8 -13.6 4 -15.7 84 84 SSE 10 17 30.5 1033 10 16.09344 0 0
10:10 pm 22:10 Clear 8 -13.5 4 -15.7 84 84 SSE 10 17 30.5 1033 10 16.09344 0 0
10:35 pm 22:35 Clear 8 -13.5 4 -15.6 84 84 SSE 10 17 30.48 1032 10 16.09344 0 0
10:55 pm 22:55 Clear 9 -13 5 -15.2 84 84 SSE 12 19 30.5 1033 10 16.09344 0 0
11:15 pm 23:15 Clear 10 -12.4 6 -14.7 83 83 SSE 13 20 30.45 1031 10 16.09344 0 0
11:35 pm 23:35 Partly Cloudy 11 -11.6 7 -14.1 82 82 S 14 22 30.45 1031 10 16.09344 0 0
11:55 pm 23:55 Partly Cloudy 12 -11 7 -13.8 80 80 S 15 24 30.45 1031 10 16.09344 0 0

Powered by AerisWeather